When you browse on this site, cookies collect data to enhance your experience and personalize the content and advertising you see.
Visit our Privacy Policy to learn more. By continuing to use the site, you agree to this use of cookies and data.

Hourly Weather Kerns

Today, 12 July, Sunday

Time Temperature Precipitation Wind Pressure Humidity
00:00 +21°C° 0 mm 3 mps 760 mmHg 96%
01:00 +21°C° 0 mm 3 mps 759 mmHg 96%
02:00 +21°C° 0.1 mm 3 mps 759 mmHg 97%
03:00 +21°C° 0.1 mm 3 mps 759 mmHg 97%
04:00 +21°C° 0 mm 3 mps 759 mmHg 98%
05:00 +21°C° 0.1 mm 3 mps 759 mmHg 98%
06:00 +21°C° 0.1 mm 2 mps 760 mmHg 98%
07:00 +21°C° 0.1 mm 2 mps 760 mmHg 98%
08:00 +24°C° 0.1 mm 2 mps 760 mmHg 90%
09:00 +25°C° 0.1 mm 3 mps 760 mmHg 83%
10:00 +28°C° 0 mm 2 mps 760 mmHg 71%
11:00 +28°C° 0.1 mm 3 mps 760 mmHg 71%
12:00 +28°C° 0.1 mm 3 mps 759 mmHg 70%
13:00 +28°C° 0.1 mm 4 mps 759 mmHg 70%
14:00 +28°C° 0.1 mm 4 mps 758 mmHg 73%
15:00 +27°C° 0.1 mm 4 mps 758 mmHg 77%
16:00 +26°C° 0 mm 3 mps 758 mmHg 82%
17:00 +25°C° 0 mm 3 mps 758 mmHg 87%
18:00 +24°C° 0 mm 3 mps 759 mmHg 91%
19:00 +22°C° 0 mm 4 mps 759 mmHg 96%
20:00 +22°C° 0 mm 4 mps 760 mmHg 96%
21:00 +22°C° 0 mm 3 mps 760 mmHg 96%
22:00 +22°C° 0 mm 3 mps 761 mmHg 98%
23:00 +22°C° 0 mm 3 mps 761 mmHg 96%

Tomorrow, 13 July, Monday

Time Temperature Precipitation Wind Pressure Humidity
00:00 +22°C° 0 mm 3 mps 761 mmHg 94%
01:00 +22°C° 0 mm 3 mps 760 mmHg 92%
02:00 +22°C° 0 mm 3 mps 760 mmHg 91%
03:00 +22°C° 0 mm 3 mps 760 mmHg 90%
04:00 +22°C° 0 mm 3 mps 760 mmHg 90%
05:00 +21°C° 0 mm 3 mps 760 mmHg 91%
06:00 +21°C° 0 mm 4 mps 761 mmHg 92%
07:00 +20°C° 0 mm 4 mps 761 mmHg 92%
08:00 +22°C° 0 mm 4 mps 761 mmHg 82%
09:00 +25°C° 0 mm 5 mps 761 mmHg 71%
10:00 +27°C° 0 mm 5 mps 761 mmHg 61%
11:00 +28°C° 0 mm 5 mps 761 mmHg 58%
12:00 +28°C° 0 mm 5 mps 761 mmHg 54%
13:00 +29°C° 0 mm 5 mps 760 mmHg 51%
14:00 +29°C° 0 mm 5 mps 760 mmHg 51%
15:00 +28°C° 0 mm 5 mps 760 mmHg 51%
16:00 +27°C° 0 mm 5 mps 760 mmHg 51%
17:00 +25°C° 0 mm 5 mps 760 mmHg 56%
18:00 +22°C° 0 mm 5 mps 760 mmHg 60%
19:00 +20°C° 0 mm 5 mps 761 mmHg 65%
20:00 +20°C° 0 mm 5 mps 761 mmHg 64%
21:00 +19°C° 0 mm 5 mps 762 mmHg 64%
22:00 +19°C° 0 mm 5 mps 762 mmHg 63%
23:00 +19°C° 0 mm 5 mps 762 mmHg 64%

Day after tomorrow, 14 July, Tuesday

Time Temperature Precipitation Wind Pressure Humidity
00:00 +17°C° 0 mm 5 mps 762 mmHg 65%
01:00 +17°C° 0 mm 5 mps 762 mmHg 66%
02:00 +16°C° 0 mm 5 mps 762 mmHg 65%
03:00 +16°C° 0 mm 5 mps 762 mmHg 64%
04:00 +16°C° 0 mm 5 mps 761 mmHg 63%
05:00 +16°C° 0 mm 5 mps 762 mmHg 60%
06:00 +15°C° 0 mm 5 mps 762 mmHg 57%
07:00 +15°C° 0 mm 5 mps 762 mmHg 55%
08:00 +19°C° 0 mm 5 mps 763 mmHg 49%
09:00 +21°C° 0 mm 5 mps 763 mmHg 44%
10:00 +23°C° 0 mm 5 mps 763 mmHg 38%
11:00 +24°C° 0 mm 6 mps 762 mmHg 39%
12:00 +26°C° 0 mm 6 mps 762 mmHg 40%
13:00 +27°C° 0 mm 6 mps 761 mmHg 40%
14:00 +26°C° 0 mm 6 mps 761 mmHg 42%
15:00 +26°C° 0 mm 6 mps 761 mmHg 44%
16:00 +24°C° 0 mm 6 mps 760 mmHg 46%
17:00 +22°C° 0 mm 5 mps 761 mmHg 52%
18:00 +20°C° 0 mm 5 mps 761 mmHg 58%
19:00 +17°C° 0 mm 5 mps 762 mmHg 64%
20:00 +17°C° 0 mm 4 mps 762 mmHg 63%
21:00 +15°C° 0 mm 4 mps 762 mmHg 63%
22:00 +15°C° 0 mm 4 mps 763 mmHg 62%
23:00 +15°C° 0 mm 4 mps 762 mmHg 62%

15 July, Wednesday

Time Temperature Precipitation Wind Pressure Humidity
00:00 +15°C° 0 mm 4 mps 762 mmHg 62%
01:00 +15°C° 0 mm 4 mps 762 mmHg 62%
02:00 +14°C° 0 mm 4 mps 762 mmHg 63%
03:00 +14°C° 0 mm 4 mps 761 mmHg 64%
04:00 +14°C° 0 mm 4 mps 761 mmHg 65%
05:00 +14°C° 0 mm 4 mps 761 mmHg 68%
06:00 +14°C° 0 mm 4 mps 762 mmHg 71%
07:00 +14°C° 0 mm 4 mps 762 mmHg 73%
08:00 +17°C° 0 mm 5 mps 762 mmHg 66%
09:00 +20°C° 0 mm 5 mps 762 mmHg 59%
10:00 +22°C° 0 mm 5 mps 762 mmHg 53%
11:00 +23°C° 0 mm 5 mps 762 mmHg 49%
12:00 +26°C° 0 mm 5 mps 761 mmHg 46%
13:00 +27°C° 0 mm 5 mps 760 mmHg 42%
14:00 +26°C° 0 mm 5 mps 760 mmHg 44%
15:00 +26°C° 0 mm 5 mps 760 mmHg 46%
16:00 +25°C° 0 mm 5 mps 759 mmHg 48%
17:00 +22°C° 0 mm 5 mps 760 mmHg 57%
18:00 +20°C° 0 mm 4 mps 760 mmHg 65%
19:00 +17°C° 0 mm 4 mps 761 mmHg 74%
20:00 +17°C° 0 mm 4 mps 761 mmHg 74%
21:00 +15°C° 0 mm 4 mps 761 mmHg 74%
22:00 +14°C° 0 mm 3 mps 762 mmHg 74%
23:00 +14°C° 0 mm 3 mps 762 mmHg 72%

16 July, Thursday

Time Temperature Precipitation Wind Pressure Humidity
00:00 +14°C° 0 mm 3 mps 762 mmHg 70%
01:00 +14°C° 0 mm 4 mps 761 mmHg 68%
02:00 +13°C° 0 mm 4 mps 761 mmHg 69%
03:00 +13°C° 0 mm 4 mps 761 mmHg 69%
04:00 +13°C° 0 mm 4 mps 761 mmHg 70%
05:00 +13°C° 0 mm 4 mps 761 mmHg 72%
06:00 +13°C° 0 mm 4 mps 761 mmHg 74%
07:00 +13°C° 0 mm 4 mps 762 mmHg 75%
08:00 +17°C° 0 mm 4 mps 762 mmHg 66%
09:00 +20°C° 0 mm 4 mps 762 mmHg 57%
10:00 +23°C° 0 mm 5 mps 762 mmHg 48%
11:00 +25°C° 0 mm 5 mps 761 mmHg 44%
12:00 +26°C° 0 mm 5 mps 760 mmHg 41%
13:00 +27°C° 0 mm 5 mps 760 mmHg 38%
14:00 +27°C° 0 mm 5 mps 760 mmHg 40%
15:00 +26°C° 0 mm 5 mps 759 mmHg 42%
16:00 +26°C° 0 mm 5 mps 759 mmHg 44%
17:00 +22°C° 0 mm 5 mps 759 mmHg 54%
18:00 +19°C° 0 mm 4 mps 760 mmHg 63%
19:00 +15°C° 0 mm 4 mps 760 mmHg 73%
20:00 +14°C° 0 mm 3 mps 761 mmHg 74%
21:00 +14°C° 0 mm 3 mps 761 mmHg 74%
22:00 +13°C° 0 mm 3 mps 761 mmHg 74%
23:00 +13°C° 0 mm 3 mps 761 mmHg 73%

17 July, Friday

Time Temperature Precipitation Wind Pressure Humidity
00:00 +13°C° 0 mm 3 mps 761 mmHg 72%
01:00 +12°C° 0 mm 3 mps 761 mmHg 71%
02:00 +12°C° 0 mm 3 mps 761 mmHg 71%
03:00 +12°C° 0 mm 3 mps 761 mmHg 72%
04:00 +12°C° 0 mm 3 mps 760 mmHg 73%
05:00 +12°C° 0 mm 3 mps 761 mmHg 73%
06:00 +12°C° 0 mm 3 mps 761 mmHg 72%
07:00 +12°C° 0 mm 3 mps 762 mmHg 72%
08:00 +15°C° 0 mm 4 mps 762 mmHg 62%
09:00 +19°C° 0 mm 4 mps 762 mmHg 53%
10:00 +22°C° 0 mm 4 mps 762 mmHg 43%
11:00 +25°C° 0 mm 5 mps 761 mmHg 41%
12:00 +26°C° 0 mm 5 mps 760 mmHg 39%
13:00 +27°C° 0 mm 5 mps 760 mmHg 37%
14:00 +26°C° 0 mm 5 mps 759 mmHg 41%
15:00 +25°C° 0 mm 5 mps 759 mmHg 45%
16:00 +25°C° 0 mm 5 mps 759 mmHg 49%
17:00 +21°C° 0 mm 5 mps 759 mmHg 60%
18:00 +19°C° 0 mm 4 mps 760 mmHg 71%
19:00 +15°C° 0 mm 4 mps 760 mmHg 81%
20:00 +14°C° 0 mm 4 mps 761 mmHg 85%
21:00 +14°C° 0 mm 3 mps 761 mmHg 88%
22:00 +13°C° 0 mm 3 mps 762 mmHg 91%
23:00 +13°C° 0 mm 3 mps 761 mmHg 90%
Show more